This is the latest recevied weather packets stored in our database for station/object EA3GKP-10. If no packets are shown the sender has not sent any weather packets the latest 10 day(s).
| Time | Temp. | Humidity | Pressure | Rain* | Wind** | Luminosity | Snow |
|---|---|---|---|---|---|---|---|
| 1777647869 | 22.78° C | - | - | 0 mm | 0 m/s | - | - |
| 1777647564 | 22.78° C | - | - | 0 mm | 2.24 m/s, 188° | - | - |
| 1777646955 | 23.33° C | - | - | 0 mm | 0.89 m/s, 156° | - | - |
| 1777646652 | 22.78° C | - | - | 0 mm | 1.79 m/s, 89° | - | - |
| 1777646349 | 21.67° C | - | - | 0 mm | 3.13 m/s, 141° | - | - |
| 1777646046 | 21.67° C | - | - | 0 mm | 2.68 m/s, 101° | - | - |
| 1777645743 | 22.22° C | - | - | 0 mm | 1.79 m/s, 103° | - | - |
| 1777645440 | 22.78° C | - | - | 0 mm | 2.68 m/s, 96° | - | - |
| 1777645138 | 22.78° C | - | - | 0 mm | 1.79 m/s, 138° | - | - |
| 1777644835 | 22.78° C | - | - | 0 mm | 1.79 m/s, 122° | - | - |
| 1777644532 | 22.78° C | - | - | 0 mm | 1.79 m/s, 127° | - | - |
| 1777644229 | 23.33° C | - | - | 0 mm | 1.79 m/s, 193° | - | - |
| 1777643926 | 22.78° C | - | - | 0 mm | 1.34 m/s, 131° | - | - |
| 1777643623 | 21.67° C | - | - | 0 mm | 0.89 m/s, 63° | - | - |
| 1777643320 | 22.22° C | - | - | 0 mm | 0.89 m/s, 166° | - | - |
| 1777643017 | 22.78° C | - | - | 0 mm | 1.34 m/s, 128° | - | - |
| 1777642714 | 22.22° C | - | - | 0 mm | 1.34 m/s, 132° | - | - |
| 1777642106 | 22.22° C | - | - | 0 mm | 3.13 m/s, 113° | - | - |
| 1777641803 | 22.22° C | - | - | 0 mm | 1.79 m/s, 198° | - | - |
| 1777641500 | 22.78° C | - | - | 0 mm | 1.79 m/s, 104° | - | - |
| 1777641194 | 22.78° C | - | - | 0 mm | 1.79 m/s, 177° | - | - |
| 1777640888 | 21.67° C | - | - | 0 mm | 1.79 m/s, 122° | - | - |
| 1777640585 | 22.22° C | - | - | 0 mm | 1.79 m/s, 212° | - | - |
| 1777640283 | 22.22° C | - | - | 0 mm | 2.24 m/s, 89° | - | - |
| 1777639677 | 21.11° C | - | - | 0 mm | 2.24 m/s, 139° | - | - |
* Rain latest hour (hover to see other rain measurements)
** Current wind speed in m/s (hover to see current wind gust speed)